AirNav   TITAN Aviation Fuels
 
 1462 users online  

UT10 Cedar Valley Airport
Eagle Mountain, Utah, USA

GOING TO EAGLE MOUNTAIN?


FAA INFORMATION EFFECTIVE 07 OCTOBER 2021

Location

FAA Identifier: UT10
Lat/Long: 40-21-33.5600N 112-01-05.4900W
40-21.559333N 112-01.091500W
40.3593222,-112.0181917
(estimated)
Elevation: 5000 ft. / 1524 m (estimated)
Variation: 15E (1985)
From city: 3 miles N of EAGLE MOUNTAIN, UT
Time zone: UTC -6 (UTC -7 during Standard Time)
Zip code: 84043

Airport Operations

Airport use: Private use. Permission required prior to landing
Activation date: 06/1973
Control tower: no
ARTCC: SALT LAKE CITY CENTER
FSS: CEDAR CITY FLIGHT SERVICE STATION
Attendance: DAYLIGHT HOURS
Wind indicator: yes
Segmented circle: no

Airport Communications

WX AWOS-3 at U42 (16 nm N): 134.425 (801-562-0271)
WX AWOS-3PT at PVU (16 nm SE): 135.175 (801-373-9782)

Nearby radio navigation aids

VOR radial/distance  VOR name  Freq  Var
FFUr309/6.2FAIRFIELD VORTAC116.6016E
PVUr288/16.1PROVO VOR/DME108.4015E
TCHr167/29.5WASATCH VORTAC116.8016E

Airport Services

Runway Information

Runway 17/35

Dimensions: 5100 x 100 ft. / 1554 x 30 m
Surface: gravel
RUNWAY 17  RUNWAY 35
Traffic pattern: rightright

Airport Ownership and Management from official FAA records

Ownership: Privately-owned
Owner: LARRY PATTERSON
48 WEST 1010 NORTH
AMERICAN FORT, UT 84003
Phone (801) 636-8405
Manager: KENT PRICE
2344 VALLEY DRIVE
EAGLE MOUNTAIN, UT 84005
Phone (801) 554-0015

Airport Operational Statistics

Aircraft based on the field: 5
Single engine airplanes: 4
Multi engine airplanes: 1
    

Additional Remarks

GLIDER, POWERED PARACHUTING AND SKYDIVING ACTIVITY ON & INVOF ARPT.
FOR CD CTC SALT LAKE CITY APCH AT 801-325-9670.

Instrument Procedures

There are no published instrument procedures at UT10.

Some nearby airports with instrument procedures:

U42 - South Valley Regional Airport (16 nm N)
KPVU - Provo Municipal Airport (16 nm SE)
KSPK - Spanish Fork Municipal Airport/Woodhouse Field (21 nm SE)
KTVY - Bolinder Field-Tooele Valley Airport (21 nm NW)
KSLC - Salt Lake City International Airport (26 nm N)
 
Loc | Ops | Rwys | IFR | FBO | Links
Com | Nav | Svcs | Stats | Notes
Area around UT10 (Cedar Valley Airport)
 
Road maps at: MapQuest Bing Google
 
Aerial photo
WARNING: Photo may not be current or correct
Aerial photo of UT10 (Cedar Valley Airport)
Photo by Creighton King
Taken in November 2007
looking northeast

Do you have a better or more recent aerial photo of Cedar Valley Airport that you would like to share? If so, please send us your photo.

 
Sectional chart

 
Airport distance calculator
Flying to Cedar Valley Airport? Find the distance to fly.

From to UT10

Sunrise and sunset
Times for 22-Oct-2021
 Local
(UTC-6)
 Zulu
(UTC)
Morning civil twilight07:2013:20
Sunrise07:4813:48
Sunset18:3800:38
Evening civil twilight19:0501:05

Current date and time
Zulu (UTC)  22-Oct-2021 17:33:34
Local (UTC-6)  22-Oct-2021 11:33:34
 
METAR
KU42 
15nm N 
221715Z AUTO 18014G18KT 10SM CLR 14/05 A3004 RMK AO1 T01350046
KPVU 
16nm SE 
221656Z 28005KT 10SM CLR 10/04 A3008 RMK AO2 SLP176 T01000039
KSPK 
21nm SE 
221715Z AUTO 15014G22KT 10SM CLR 14/03 A3006 RMK AO2
KTVY 
21nm NW 
221715Z AUTO 06003KT 10SM CLR 12/06 A3003 RMK AO2
KSLC 
26nm N 
221654Z 17010KT 10SM SCT160 SCT200 BKN250 16/02 A3003 RMK AO2 SLP143 VIRGA ACSL DSNT E-SE AND SW T01560022
KHCR 
28nm E 
221715Z AUTO 00000KT 10SM CLR 08/01 A3010 RMK AO2
TAF
KPVU 
16nm SE 
221120Z 2212/2312 VRB04KT P6SM FEW180 FM230000 12015KT P6SM SCT100
NOTAMs
Click for the latest NOTAMs
NOTAMs are issued by the DoD/FAA and will open in a separate window not controlled by AirNav.

 

 
 

Would you like to see your business listed on this page?

 If your business provides an interesting product or service to pilots, flight crews, aircraft, or users of the Cedar Valley Airport, you should consider listing it here.  To start the listing process, click on the button below
 
Add a business
 

Other Pages about Cedar Valley Airport

Update a link
 
Copyright © AirNav, LLC. All rights reserved. Privacy Policy  Contact